Regional Weather Roundup
Issued by NWS Albany, NY

Home | Current Version | Previous Version | Text Only | Print | Product List | Glossary On
Versions: 1 2 3 4 5 6 7 8 9 10 11 12 13 14 15 16 17 18 19 20 21 22 23 24 25 26 27 28 29 30 31 32 33 34 35 36 37 38 39 40 41 42 43 44 45 46 47 48 49 50
128
ASUS41 KALY 251910
RWRALY

NEW YORK STATE HOURLY WEATHER ROUNDUP
NATIONAL WEATHER SERVICE ALBANY NY
300 PM EDT THU MAY 25 2017

NOTE: "FAIR" INDICATES FEW OR NO CLOUDS BELOW 12,000 FEET WITH NO
SIGNIFICANT WEATHER AND/OR NO OBSTRUCTIONS TO VISIBILITY.

NYZ032-033-038>043-046>054-057>066-NYZ062>081-082-084-252000-
EAST


CITY           SKY/WX    TMP DP  RH WIND       PRES   REMARKS
ALBANY         LGT RAIN  57  53  86 N8        29.65F FOG
GLENS FALLS    NOT AVBL
POUGHKEEPSIE   LGT RAIN  59  55  87 E10       29.60F FOG
NEWBURGH       DRIZZLE   59  59 100 E12       29.62S FOG
MONTGOMERY     LGT RAIN  59  57  93 NE10      29.60S
WHITE PLAINS   LGT RAIN  56  55  97 E10G26    29.59F VSB 1
ISLIP          DRIZZLE   59  59 100 E13       29.58F FOG
NEW YORK CITY  LGT RAIN  57  56  96 NE20      29.57F FOG
CENTRAL PARK   LGT RAIN  57  56  96 NE9G18    29.60F FOG
$$

NYZ005>009-017-018-044>046-055-056-252000-
CENTRAL


CITY           SKY/WX    TMP DP  RH WIND       PRES   REMARKS
FULTON         LGT RAIN  57  53  86 E8G22     29.55F FOG
SYRACUSE       RAIN      56  55  97 E15       29.55F
ROME           LGT RAIN  56  54  93 E13G23    29.61F FOG
ELMIRA         CLOUDY    62  56  80 SE10G20   29.52S
BINGHAMTON     CLOUDY    55  53  93 SE10      29.53F
MONTICELLO     CLOUDY    55  55 100 E10G23    29.61S
$$

NYZ026>034-041>043-087-252000-
NORTH


CITY           SKY/WX    TMP DP  RH WIND       PRES   REMARKS
WATERTOWN      LGT RAIN  57  56  96 E10       29.59F FOG
FORT DRUM      NOT AVBL
OGDENSBURG     RAIN      59  55  85 E6        29.67S
MASSENA        LGT RAIN  62  51  67 E14       29.70S
SARANAC LAKE   RAIN      53  49  86 E10       29.69F
PLATTSBURGH    LGT RAIN  61  50  67 S7        29.74S
$$

NYZ001>004-010>016-019>021-085-252000-
WEST


CITY           SKY/WX    TMP DP  RH WIND       PRES   REMARKS
NIAGARA FALLS  LGT RAIN  61  56  83 E13       29.48F
BUFFALO        LGT RAIN  60  57  89 E7        29.48F FOG
DUNKIRK        CLOUDY    59  59 100 N7        29.47F
JAMESTOWN      CLOUDY    57  54  88 S8        29.48S
WELLSVILLE     CLOUDY    60  55  83 S6        29.52F
ROCHESTER      DRIZZLE   58  56  93 E12       29.53F FOG
PENN YAN       CLOUDY    59  55  87 VRB3      29.54S
$$

             KEY
       WCI = WIND CHILL INDEX
       VSB = VISIBILITY
       HX  = HEAT INDEX
$$




USA.gov is the U.S. government's official web portal to all federal, state and local government web resources and services.